MST,Max TemperatureF,Mean TemperatureF,Min TemperatureF,Max Dew PointF,MeanDew PointF,Min DewpointF,Max Humidity, Mean Humidity, Min Humidity, Max Sea Level PressureIn, Mean Sea Level PressureIn, Min Sea Level PressureIn, Max VisibilityMiles, Mean VisibilityMiles, Min VisibilityMiles, Max Wind SpeedMPH, Mean Wind SpeedMPH, Max Gust SpeedMPH,PrecipitationIn, CloudCover, Events, WindDirDegrees
2012-11-1,64,46,28,28,18,2,80,44,9,30.23,30.13,30.05,10,10,10,16,1,23,0.00,0,,228
2012-11-2,48,38,28,24,21,16,74,56,35,30.21,30.15,30.08,10,10,10,6,0,,0.00,0,,128
2012-11-3,55,39,23,25,19,9,92,55,16,30.31,30.25,30.21,10,10,10,18,2,25,0.00,0,,228
2012-11-4,54,38,22,27,21,17,83,56,27,30.41,30.36,30.31,10,10,10,14,1,21,0.00,3,,204
2012-11-5,54,41,28,29,26,23,84,61,29,30.45,30.39,30.33,10,10,10,12,1,16,0.00,3,,251
2012-11-6,59,42,25,29,23,15,96,58,18,30.45,30.37,30.32,10,10,10,7,1,,0.00,0,,194
2012-11-7,63,44,24,25,17,3,84,46,9,30.33,30.19,30.07,10,10,10,14,1,,0.00,0,,251
2012-11-8,65,46,26,22,11,-6,72,35,6,30.09,29.94,29.82,10,10,10,18,2,24,0.00,0,,191
2012-11-9,56,46,37,31,22,10,60,36,20,29.81,29.70,29.57,10,10,10,21,6,32,0.00,5,,141
2012-11-10,44,32,19,32,23,14,100,81,43,29.80,29.65,29.53,10,8,1,20,7,34,0.00,7,,217
2012-11-11,23,17,11,14,9,3,84,70,48,30.34,30.04,29.80,10,8,0,20,7,31,0.00,7,,237
2012-11-12,32,18,3,14,7,0,86,67,35,30.46,30.38,30.34,10,10,10,7,1,,0.00,1,,92
2012-11-13,37,25,13,20,16,9,93,73,42,30.38,30.33,30.31,10,10,10,5,0,,0.00,4,,119
2012-11-14,44,29,14,26,19,12,95,70,30,30.34,30.28,30.21,10,10,10,7,0,,0.00,4,,92
2012-11-15,47,36,26,26,23,16,83,63,29,30.36,30.31,30.26,10,10,10,8,1,,0.00,3,,172
2012-11-16,48,34,19,33,22,16,96,68,28,30.32,30.23,30.16,10,10,7,10,1,18,0.00,4,,24
2012-11-17,48,40,32,37,32,30,100,81,52,30.22,30.16,30.10,10,9,0,6,1,,0.00,7,,360
2012-11-18,47,40,33,32,30,28,95,73,50,30.22,30.11,30.06,10,10,10,21,1,24,0.00,7,,97
2012-11-19,50,40,29,33,27,21,95,68,33,30.36,30.29,30.22,10,10,10,10,1,16,0.00,4,,266
2012-11-20,53,40,27,24,21,16,83,52,23,30.36,30.25,30.23,10,10,10,8,0,,0.00,0,,59
2012-11-21,56,39,22,24,16,5,89,49,13,30.23,30.12,30.04,10,10,10,16,1,20,0.00,0,,241
2012-11-22,45,35,24,26,17,10,71,52,26,30.48,30.29,30.09,10,10,10,14,2,20,0.00,3,,262
2012-11-23,48,32,16,16,12,4,78,52,17,30.54,30.47,30.40,10,10,10,6,0,,0.00,0,,170
2012-11-24,54,36,18,20,13,7,83,48,16,30.39,30.24,30.10,10,10,10,16,1,22,0.00,0,,256
2012-11-25,52,34,15,19,14,7,84,50,17,30.10,30.02,29.92,10,10,10,18,2,26,0.00,2,,274
2012-11-26,42,30,19,21,15,7,91,61,24,30.31,30.22,30.07,10,10,10,8,0,,0.00,1,,162
2012-11-27,49,31,13,17,10,3,90,52,15,30.36,30.31,30.25,10,10,10,14,1,17,0.00,0,,303
2012-11-28,51,33,15,15,10,5,77,47,15,30.37,30.27,30.18,10,10,10,10,1,,0.00,0,,162
2012-11-29,53,39,25,21,18,14,79,53,24,30.19,30.16,30.13,10,10,10,14,2,24,0.00,4,,289
2012-11-30,64,42,20,57,21,17,93,59,28,30.19,30.08,30.00,10,10,3,7,0,,0.00,2,Rain,111